Location: Coach Royal Trailer Park
(33.7395°N, 117.9048°W)
Time: 03:47:36
(UTC+00:00)

Daily predictions for brighter satellites

Satellite Brightness Start Highest point End
(mag) Time Altitude Azimuth Time Altitude Azimuth Time Altitude Azimuth
USA 276 3.6 01:08:13 10° NNW 01:10:38 20° NNE 01:13:03 10° E
CZ-4C R/B 4.2 01:08:24 10° N 01:13:34 20° NE 01:19:12 10° E
ATLAS CENTAUR R/B 4.5 01:01:19 10° SW 01:14:08 49° NW 01:19:23 10° NNE
H-2A R/B 2.8 01:09:54 10° SE 01:14:26 31° ENE 01:18:52 10° N
Meteor PRIRODA 4.5 01:12:52 10° S 01:16:27 55° W 01:20:01 10° NNW
COSMO-SKYMED 1 3.5 01:14:01 10° NE 01:17:46 28° E 01:21:29 10° SSE
Cosmos 1092 Rocket 4.1 01:13:48 10° N 01:20:05 61° E 01:26:18 10° SSE
FengYun 1-2 T 4.3 01:15:54 10° SSE 01:21:30 88° WSW 01:27:05 10° NNW
Cosmos 1656 3.9 01:16:46 10° NNW 01:22:20 78° WSW 01:27:56 10° SSE
Cosmos 1633 Rocket 4.4 01:24:34 10° NNE 01:27:41 19° ENE 01:30:47 10° ESE
Cosmos 1602 3.7 01:25:27 10° N 01:29:16 62° E 01:33:06 10° SSE
Cosmos 841 Rocket 3.5 01:24:50 10° SSW 01:30:00 88° WNW 01:35:11 10° NNE
Cosmos 1782 2.7 01:26:08 10° S 01:30:08 83° E 01:34:08 10° N
Aurora 2 Rocket 4.4 01:28:13 10° WSW 01:32:27 32° S 01:38:12 10° ESE
Okean O Rocket 2.7 01:30:15 10° ESE 01:33:46 23° ENE 01:37:18 10° NNE
Cosmos 1697 Rocket 2.7 01:29:41 10° NNW 01:35:16 63° ENE 01:40:48 10° SSE
Cosmos 1151 Rocket 3.3 01:32:18 10° SSE 01:36:25 46° E 01:40:34 10° NNE
Cosmos 1980 Rocket 2.8 01:34:10 10° N 01:39:14 33° ENE 01:44:14 10° SE
Cosmos 2369 4.0 01:34:13 10° N 01:39:39 43° ENE 01:45:03 10° SE
Cosmos 1937 Rocket 3.5 01:35:03 10° N 01:40:19 60° ENE 01:45:32 10° SSE
NOAA 6 4.4 01:35:40 10° S 01:40:47 71° WSW 01:45:55 10° NNW
Cosmos 2279 Rocket 4.0 01:34:56 10° S 01:41:00 58° E 01:47:04 10° NNE
Cosmos 1627 Rocket 4.4 01:34:51 10° N 01:41:01 77° E 01:47:07 10° S
Cosmos 1743 Rocket 4.5 01:37:18 10° NNW 01:41:29 51° W 01:45:41 10° S
CZ-2D R/B 3.1 01:40:26 10° SSE 01:44:14 70° ENE 01:48:03 10° N
Cosmos 2082 Rocket 2.4 01:40:51 10° SSW 01:46:32 74° WNW 01:52:13 10° NNE
CZ-2C R/B 2.2 01:47:44 10° SW 01:51:40 37° SSE 01:53:47 21° ESE
Cosmos 1328 Rocket 3.7 01:47:31 10° SSE 01:51:48 49° E 01:56:05 10° NNE
CZ-4B DEB 4.4 01:47:11 10° S 01:52:42 76° WSW 01:58:14 10° NNW
Cosmos 1666 Rocket 3.8 01:48:45 10° N 01:53:01 46° E 01:57:13 10° SSE
Cosmos 372 Rocket 4.2 01:48:26 10° N 01:53:30 48° ENE 01:58:33 10° SE
Meteor 2-21 4.4 01:51:07 10° N 01:57:13 89° W 02:03:14 10° S
Cosmos 1500 3.2 01:58:14 10° N 02:01:58 75° W 02:05:39 10° S
Cosmos 2278 4.1 01:58:41 10° N 02:03:58 38° ENE 02:09:11 10° SE
SKYMED 2 3.7 02:01:33 10° N 02:05:53 74° WNW 02:10:12 10° SSW
Landsat 5 3.2 02:03:11 12° NNE 02:06:55 78° ESE 02:10:49 10° S
ARGOS 3.1 02:01:57 10° SSE 02:07:16 60° ENE 02:12:35 10° N
SL-08 RB Rocket 4.0 02:06:03 10° SE 02:10:24 42° ENE 02:14:45 10° N
Cosmos 2026 Rocket 4.5 02:05:08 10° NNW 02:11:07 60° W 02:17:02 10° S
ATLAS 5 CENTAUR R/B 4.0 02:08:14 10° SW 02:12:52 13° S 02:15:46 10° SSE
COSMOS 2455 4.2 02:07:36 10° WSW 02:13:04 36° WNW 02:18:34 10° N
Meteor 2-6 Rocket 4.2 02:11:32 10° S 02:17:22 89° W 02:23:05 10° N
Meteor 2-15 4.3 02:12:09 10° S 02:18:14 73° E 02:24:18 10° N
GPS 2-04 Rocket1 2.6 02:16:16 10° WNW 02:20:24 77° N 02:21:03 60° ENE
DEBRIS 2.2 02:20:18 10° SW 02:22:30 80° NW 02:22:37 76° N
USA 229 DEB 4.4 02:15:13 10° NW 02:22:41 66° WSW 02:30:30 10° SSE
USA 229 4.4 02:15:18 10° NW 02:22:47 67° WSW 02:30:35 10° SSE
DMSP B5D2-2 4.1 02:21:26 31° NE 02:23:46 56° E 02:28:53 10° S
H-2A R/B 3.8 02:26:39 20° SE 02:26:39 20° SE 02:28:23 10° SSE
Cosmos 1655 Rocket 4.1 02:19:35 10° N 02:25:49 52° E 02:31:57 10° SSE
CZ-4C R/B 3.0 02:25:26 61° NNW 02:25:52 73° WNW 02:29:12 10° SSW
CZ-4B R/B 3.4 02:20:39 10° S 02:26:06 72° WSW 02:31:29 10° NNW
deb Chang Zheng 4 3.9 02:24:22 10° S 02:28:36 65° WSW 02:32:54 10° NNW
USA 234 3.3 02:24:07 10° SE 02:30:40 82° SW 02:37:14 10° NW
Cosmos 1666 3.1 02:27:53 10° NNW 02:31:32 58° W 02:35:10 10° S
Cosmos 1515 Rocket 3.4 02:28:44 10° S 02:33:10 80° E 02:34:02 57° NNE
NOSS 3-3 (A) 4.4 02:29:47 10° S 02:33:54 34° SE 02:33:54 34° SE
NOSS 3-3 (C) 4.5 02:29:54 10° S 02:33:58 33° SE 02:33:58 33° SE
CZ-2C R/B 3.8 02:30:17 10° N 02:35:05 40° WNW 02:39:53 10° SW
Meteor 1-10 Rocket 4.3 02:30:57 10° S 02:36:48 84° W 02:41:51 14° N
X-37B 2.6 02:36:31 10° SW 02:37:48 24° SW 02:37:48 24° SW
USA 276 4.2 02:43:52 10° WNW 02:45:51 27° W 02:45:51 27° W
Cosmos 836 Rocket 4.3 02:41:53 10° S 02:47:09 74° ESE 02:47:13 74° E
Feng Yun 1-1 Rocket 4.3 02:42:41 10° SSE 02:48:37 89° ENE 02:54:33 10° NNW
Cosmos 1867 3.7 02:46:39 10° SSW 02:51:23 59° SSE 02:51:23 59° SSE
H-2A R/B 4.2 02:49:28 10° SSW 02:53:46 26° W 02:58:00 10° NW
APEX 4.2 02:50:17 10° SW 02:54:07 47° W 02:54:07 47° W
Cosmos 921 Rocket 4.4 02:56:35 10° SW 03:00:22 34° WNW 03:01:06 31° NW
CZ-4C R/B 3.0 02:55:22 10° NNW 03:03:08 81° ENE 03:07:13 36° SE
USA 32 4.3 03:00:46 10° SSW 03:05:57 67° W 03:06:22 64° WNW
Okean O Rocket 3.8 03:06:17 10° SSW 03:09:57 25° W 03:13:40 10° NW
Cosmos 1980 Rocket 4.0 03:18:20 10° NW 03:23:02 28° WSW 03:27:43 10° SSW
CZ-2C R/B 4.0 03:26:57 10° W 03:27:57 17° W 03:27:57 17° W
ATLAS 3B CENTAUR R/B 4.2 03:44:10 10° W 04:03:05 70° S 04:04:12 68° SSE
Cosmos 2369 Rocket 3.3 11:47:54 39° E 11:47:54 39° E 11:52:50 10° NE
